Temp
64 64 64 63 63 62 62 61 61 60 60 60 60 60 60 60 60 59 59 58 58 59 59 60 60 60 67 71 74 79 71 72 80 82 79 79 76 76 72 78 80 74 77 81 80 79 77
63 63 63 62 61 61 61 60 59 59 59 59 59 59 59 59 59 59 58 58 58 58 58 59 60 58 69 62 85 86 83 83 83 83 81 82 78 80 74 74 74 78 77 77 79 78 78
59 60 59 59 59 59 59 58 58 58 59 59 58 58 58 58 58 58 58 57 57 58 58 60 60 66 66 67 86 86 84 81 84 82 78 83 81 76 77 72 78 76 67 73 75 77 75
58 58 58 57 57 57 57 57 58 58 58 58 58 58 57 57 57 57 57 57 57 58 59 59 60 65 62 84 85 81 83 81 84 83 81 82 81 74 72 77 73 68 69 62 75 78 75
57 58 58 57 56 56 56 57 57 58 58 58 58 58 57 57 57 57 56 56 57 58 59 60 62 65 62 74 75 82 82 78 80 80 80 82 77 71 74 65 63 67 59 65 69 77 74
57 58 58 57 56 56 56 56 56 57 57 57 57 57 57 57 57 56 56 56 60 57 62 68 70 60 68 70 78 79 83 80 76 74 72 69 69 65 66 63 53 61 63 66 66 71 72
57 57 58 58 57 57 56 56 56 56 56 57 57 56 57 56 56 56 57 64 60 57 64 65 67 66 72 78 80 76 81 76 75 70 61 68 61 58 65 69 70 68 64 62 67 74 71
57 57 57 57 57 57 57 56 55 55 55 56 56 56 57 56 56 56 57 60 67 64 55 70 70 71 76 78 65 74 81 68 67 60 67 64 57 67 71 71 66 63 60 60 66 71 69
56 57 57 57 57 57 57 57 56 55 56 56 55 56 56 57 56 55 59 66 73 70 55 63 70 70 72 74 64 67 76 70 65 62 63 60 66 71 66 65 62 61 58 59 60 66 67
56 56 56 57 57 57 57 57 56 56 56 56 56 56 55 56 52 65 63 71 72 68 48 59 63 67 70 69 61 74 79 71 65 60 63 63 70 67 65 60 62 54 66 64 60 57 49
55 56 56 56 56 56 55 56 56 56 56 56 55 55 55 52 55 60 64 69 68 62 34 62 61 74 71 62 65 66 77 70 60 62 63 58 62 61 58 61 65 58 65 60 58 54 53
55 55 55 56 56 55 55 55 56 56 55 55 55 55 54 55 58 64 66 65 61 43 33 57 62 58 58 61 63 65 64 68 69 60 63 61 69 66 63 66 65 66 58 58 57 53 41
55 55 54 54 55 55 55 55 55 55 55 55 54 54 53 60 56 65 62 57 41 35 61 55 56 60 58 57 59 60 57 54 53 47 49 57 60 65 66 59 63 60 53 41 40 41 40
54 54 55 55 55 55 55 55 54 54 55 55 54 53 55 60 64 62 56 46 32 48 50 62 60 60 54 60 59 59 57 53 59 59 54 49 46 59 65 59 57 56 54 42 33 36 43
54 54 54 54 55 55 55 55 54 54 53 54 53 52 53 56 61 59 48 33 40 48 58 56 59 52 53 59 60 58 56 56 61 62 51 51 52 66 66 65 63 56 50 60 46 48 41
53 54 53 53 54 54 54 55 55 54 53 53 48 46 50 59 59 52 41 37 47 57 59 57 48 54 49 54 53 54 53 60 59 62 65 57 47 60 62 65 64 58 62 45 45 31 31
51 52 53 52 52 54 54 54 55 54 53 53 46 40 52 58 56 45 34 40 49 58 58 51 49 49 52 51 53 52 54 56 59 59 62 58 52 52 59 49 51 54 51 52 50 45 34
50 51 52 52 52 52 54 54 54 54 53 51 44 34 52 56 38 41 36 45 50 52 56 53 52 49 47 50 48 48 48 49 59 57 51 56 51 43 49 60 63 57 51 51 37 36 36
50 50 51 52 51 51 53 54 54 54 53 47 38 37 50 52 32 34 42 45 49 51 51 52 48 52 53 48 43 49 50 54 58 55 51 52 46 37 42 51 57 52 54 54 52 48 39
49 49 50 49 51 51 50 53 53 53 53 48 37 31 37 42 47 43 40 42 44 53 53 53 51 53 50 47 51 46 48 54 55 55 50 52 47 42 36 42 49 43 49 52 49 37 38
49 49 49 49 48 50 49 52 52 51 52 43 37 35 42 31 36 44 46 46 43 45 52 54 49 49 48 42 44 44 49 52 54 52 52 50 39 44 46 49 49 48 48 50 47 48 38
48 48 47 48 48 48 49 49 49 50 51 42 33 36 46 47 44 42 44 44 45 48 50 46 45 49 50 44 47 44 49 50 48 54 49 51 38 43 40 47 47 44 48 49 49 50 49
49 48 47 47 48 49 49 48 49 49 49 34 38 45 44 43 41 40 41 45 47 51 52 54 51 49 47 50 50 54 54 53 52 48 45 44 38 37 32 43 43 34 43 47 49 53 51
49 49 48 47 47 49 48 48 49 49 45 38 39 42 36 35 39 42 46 48 47 49 47 51 53 49 51 57 56 54 53 53 52 51 53 44 42 40 33 36 23 42 54 53 50 52 54
48 49 49 48 46 47 49 48 48 49 45 40 41 38 34 34 40 42 45 47 50 51 48 49 54 54 56 51 42 38 39 41 45 49 49 51 44 35 30 31 38 43 47 44 42 44 54
48 49 49 49 48 48 49 49 49 49 47 44 42 44 39 33 35 46 42 47 43 45 46 49 53 55 52 42 37 29 28 36 35 42 51 50 48 37 34 27 23 38 51 58 54 36 54
48 48 48 48 48 47 48 48 49 49 49 47 41 45 41 35 45 43 38 36 48 47 42 45 44 45 50 37 31 30 30 41 32 33 36 38 37 32 32 29 35 49 53 56 34 36 51
47 48 48 48 48 48 48 48 49 49 48 47 42 46 41 36 44 50 52 43 39 49 40 45 41 40 39 32 32 33 32 37 36 40 38 37 34 32 33 27 25 51 50 40 43 48 49
47 47 47 47 48 47 48 48 48 48 48 47 39 44 44 37 38 46 49 46 53 56 51 49 45 43 42 36 38 38 34 36 35 28 44 32 38 35 38 37 48 49 46 46 51 48 50
MSLP
1015.31 1015.55 1015.94 1016.11 1016.40 1017.00 1017.18 1017.65 1017.97 1018.32 1018.51 1018.68 1018.92 1018.98 1019.17 1019.32 1019.25 1019.20 1019.10 1019.00 1018.61 1018.30 1018.04 1017.88 1017.26 1016.89 1015.58 1013.68 1011.78 1012.12 1012.42 1012.34 1011.99 1011.42 1010.73 1009.96 1009.26 1008.19 1007.26 1006.42 1006.07 1005.97 1005.78 1005.57 1005.87 1006.15 1006.45
1014.30 1014.62 1015.12 1015.52 1016.01 1016.51 1016.91 1017.54 1017.97 1018.47 1018.45 1018.82 1019.12 1018.93 1019.17 1019.25 1019.20 1019.14 1018.98 1018.97 1018.61 1018.27 1018.10 1017.74 1017.49 1016.95 1015.63 1013.12 1011.22 1011.36 1011.64 1011.62 1011.14 1010.62 1010.13 1009.62 1009.15 1008.51 1008.04 1007.47 1007.20 1006.31 1006.16 1006.13 1006.00 1006.01 1006.06
1015.09 1014.29 1014.67 1015.33 1016.01 1016.36 1017.01 1017.57 1018.32 1018.57 1018.43 1018.81 1019.13 1019.17 1019.13 1019.32 1019.31 1018.99 1018.64 1018.84 1018.57 1018.21 1017.95 1017.84 1017.67 1016.86 1014.69 1012.29 1010.86 1011.47 1011.35 1011.38 1010.97 1010.72 1010.20 1009.62 1009.77 1009.42 1008.35 1007.91 1007.46 1007.09 1007.00 1006.39 1005.78 1005.75 1005.85
1015.94 1015.95 1015.67 1016.53 1016.56 1016.69 1017.19 1017.74 1018.26 1018.72 1018.57 1018.90 1018.81 1018.96 1019.41 1019.32 1019.26 1019.16 1018.56 1018.66 1018.50 1018.09 1017.77 1017.81 1017.75 1016.59 1013.47 1011.02 1011.22 1011.41 1011.31 1010.80 1010.85 1010.82 1010.88 1010.61 1010.53 1009.99 1009.14 1008.39 1007.79 1007.37 1006.82 1005.74 1004.38 1004.18 1005.66
1015.80 1015.87 1016.60 1016.82 1017.85 1017.93 1017.96 1018.15 1018.33 1018.46 1018.79 1019.02 1018.94 1018.74 1019.23 1019.55 1019.04 1019.04 1018.69 1018.44 1018.27 1018.02 1017.69 1017.82 1017.25 1015.60 1012.39 1011.41 1011.08 1010.83 1010.93 1010.25 1010.29 1010.68 1010.87 1010.67 1010.65 1009.91 1008.70 1008.53 1007.72 1006.44 1005.59 1004.57 1004.06 1004.29 1005.07
1015.24 1015.85 1016.28 1017.44 1017.80 1018.17 1018.41 1018.70 1018.64 1018.53 1018.88 1018.83 1018.97 1019.09 1019.20 1019.28 1019.38 1018.70 1018.69 1018.18 1017.74 1017.86 1017.20 1016.79 1015.76 1015.06 1012.00 1010.45 1010.08 1010.61 1010.56 1010.21 1010.13 1010.34 1010.68 1010.75 1010.17 1009.31 1008.65 1007.87 1006.73 1005.39 1004.85 1004.23 1003.92 1004.46 1005.08
1015.23 1016.01 1016.47 1016.82 1017.10 1017.82 1018.08 1018.62 1018.89 1018.49 1018.66 1018.83 1019.05 1019.33 1019.16 1019.33 1019.24 1019.03 1018.51 1017.53 1017.49 1016.98 1015.70 1013.49 1012.58 1011.64 1010.38 1010.13 1010.48 1010.29 1010.00 1010.12 1009.94 1010.31 1009.97 1009.48 1009.24 1008.20 1007.35 1006.59 1006.15 1005.58 1005.49 1005.22 1004.72 1004.30 1004.50
1015.51 1015.88 1016.50 1016.55 1016.65 1017.44 1017.91 1018.33 1018.78 1018.67 1018.74 1018.64 1018.90 1019.18 1019.19 1019.26 1019.30 1019.02 1018.83 1016.98 1015.29 1016.00 1014.26 1012.36 1011.45 1010.80 1010.29 1009.95 1010.24 1009.67 1009.64 1009.76 1009.58 1009.45 1009.32 1008.72 1007.88 1007.42 1006.96 1006.64 1006.58 1006.82 1006.23 1005.82 1005.44 1005.22 1005.15
1015.39 1015.68 1016.09 1016.30 1016.54 1017.03 1017.39 1017.86 1018.53 1018.51 1018.69 1018.86 1019.00 1019.07 1019.01 1019.25 1019.17 1019.02 1017.60 1016.04 1015.51 1015.77 1014.26 1011.00 1009.72 1009.07 1009.32 1009.97 1009.56 1008.90 1009.08 1009.28 1009.09 1008.98 1008.87 1007.82 1006.72 1006.30 1006.94 1006.78 1006.90 1007.11 1006.72 1006.33 1005.91 1005.70 1005.65
1015.13 1015.31 1015.84 1016.10 1016.14 1016.58 1017.15 1017.43 1018.11 1017.98 1018.39 1018.88 1018.81 1018.96 1019.24 1019.30 1019.52 1017.15 1016.76 1016.11 1015.76 1016.33 1013.97 1009.29 1008.68 1008.20 1008.78 1009.80 1009.15 1008.80 1008.12 1008.85 1008.79 1008.33 1008.34 1007.51 1006.96 1006.24 1006.46 1007.09 1007.57 1007.04 1006.92 1006.54 1006.66 1006.75 1006.23
1014.89 1015.20 1015.61 1015.68 1015.76 1016.20 1016.70 1017.29 1017.52 1017.66 1017.97 1018.61 1019.20 1018.97 1019.18 1019.03 1018.50 1017.19 1017.08 1016.63 1016.39 1016.35 1013.00 1008.12 1008.48 1009.04 1008.71 1009.12 1008.56 1008.38 1008.22 1008.60 1008.45 1008.04 1008.41 1007.01 1006.75 1006.74 1006.73 1006.76 1007.29 1007.16 1007.41 1007.89 1007.94 1007.59 1007.28
1014.71 1014.95 1015.35 1015.31 1015.65 1015.98 1016.33 1016.92 1017.30 1017.43 1017.77 1018.52 1018.99 1019.32 1019.32 1018.93 1018.15 1017.17 1017.45 1017.31 1016.82 1015.55 1010.75 1007.72 1008.04 1008.71 1008.92 1008.86 1008.27 1008.63 1009.28 1009.42 1008.88 1008.80 1007.90 1007.55 1007.13 1006.88 1006.82 1006.91 1007.13 1007.85 1008.49 1008.40 1008.68 1008.38 1007.41
1014.56 1014.65 1014.85 1015.10 1015.34 1015.61 1016.04 1016.56 1016.89 1017.20 1017.67 1018.26 1018.75 1019.14 1019.28 1018.19 1017.50 1017.27 1017.80 1017.53 1016.43 1013.25 1008.91 1007.45 1007.31 1007.61 1008.12 1007.98 1008.09 1008.24 1008.67 1009.10 1008.40 1008.30 1007.54 1007.43 1006.88 1007.03 1007.30 1007.10 1007.62 1008.47 1008.58 1008.30 1007.87 1007.65 1006.56
1014.24 1014.38 1014.51 1014.73 1014.89 1015.19 1015.60 1016.08 1016.50 1016.98 1017.53 1018.01 1018.35 1019.03 1018.88 1018.31 1017.62 1017.91 1018.01 1017.36 1014.97 1010.59 1009.41 1007.86 1007.17 1006.94 1007.18 1006.98 1007.36 1007.68 1007.74 1007.96 1007.98 1007.14 1006.50 1006.42 1005.96 1006.11 1006.33 1006.81 1006.98 1007.54 1007.86 1008.17 1007.74 1007.53 1006.86
1014.05 1014.15 1014.31 1014.39 1014.55 1014.74 1015.15 1015.54 1015.98 1016.68 1017.19 1017.83 1018.39 1018.96 1018.86 1018.25 1017.96 1018.21 1018.18 1016.34 1012.42 1010.94 1008.66 1007.95 1007.36 1007.26 1006.84 1006.52 1006.56 1006.89 1007.14 1007.07 1006.67 1006.82 1006.49 1005.69 1005.03 1005.08 1005.29 1006.23 1007.17 1006.96 1007.13 1007.64 1007.95 1008.37 1007.98
1013.95 1013.89 1014.02 1014.12 1014.23 1014.45 1014.62 1014.98 1015.47 1016.09 1016.94 1017.72 1018.32 1018.36 1018.27 1017.85 1018.05 1018.20 1017.92 1014.69 1012.23 1010.61 1009.45 1009.00 1008.00 1007.43 1006.99 1006.64 1007.08 1007.43 1007.50 1006.95 1006.84 1007.24 1006.75 1006.47 1006.16 1005.91 1006.07 1006.78 1006.92 1007.38 1007.86 1008.10 1008.52 1009.46 1008.80
1013.60 1013.46 1013.37 1013.67 1013.75 1013.80 1014.02 1014.37 1014.94 1015.56 1016.55 1017.44 1018.11 1017.84 1017.29 1017.54 1018.00 1017.93 1016.12 1013.63 1012.28 1010.81 1010.66 1010.30 1009.70 1008.58 1008.12 1007.93 1007.89 1007.93 1007.64 1008.14 1008.47 1008.44 1008.35 1008.01 1007.52 1007.12 1006.77 1008.08 1007.39 1007.40 1007.80 1008.44 1009.10 1009.67 1009.50
1012.98 1012.82 1012.87 1013.12 1013.34 1013.51 1013.49 1013.78 1014.38 1015.06 1016.05 1016.79 1017.29 1017.36 1016.67 1017.16 1017.53 1016.75 1014.90 1013.41 1012.49 1011.36 1011.19 1010.81 1010.95 1010.47 1009.83 1009.29 1009.42 1009.16 1008.97 1009.52 1009.64 1009.89 1009.64 1009.35 1008.97 1008.28 1007.74 1007.53 1007.36 1007.80 1008.46 1008.85 1009.56 1010.12 1010.72
1012.73 1012.39 1012.55 1012.52 1012.72 1012.88 1012.83 1013.09 1013.56 1014.27 1015.05 1016.02 1016.36 1016.70 1016.32 1016.36 1015.75 1015.18 1014.38 1013.34 1012.63 1011.79 1011.21 1010.93 1011.21 1011.00 1010.69 1010.59 1010.75 1010.41 1010.08 1010.80 1010.98 1011.13 1010.96 1011.05 1010.41 1010.03 1009.17 1008.72 1008.01 1007.89 1008.32 1008.61 1008.89 1009.13 1009.25
1012.43 1012.36 1012.27 1012.39 1012.20 1012.16 1012.25 1012.33 1012.68 1013.22 1014.13 1015.18 1016.21 1016.30 1015.82 1015.88 1014.79 1013.93 1013.35 1012.93 1012.06 1011.60 1011.02 1011.31 1011.11 1011.00 1011.03 1011.14 1011.20 1011.18 1010.94 1010.83 1011.39 1011.75 1012.19 1012.32 1011.62 1011.08 1010.42 1009.53 1009.14 1008.91 1008.97 1008.83 1008.69 1009.20 1009.16
1011.92 1012.00 1012.06 1012.13 1012.14 1011.79 1011.79 1011.77 1012.17 1012.63 1013.04 1014.24 1014.60 1014.24 1013.50 1014.04 1013.86 1013.12 1012.78 1012.20 1011.40 1010.86 1011.04 1011.20 1011.41 1011.15 1011.07 1011.41 1011.45 1011.51 1011.56 1011.28 1011.47 1011.70 1012.18 1012.59 1012.33 1012.06 1011.57 1010.63 1010.18 1009.62 1008.99 1008.38 1008.12 1008.22 1008.40
1011.45 1011.58 1011.64 1011.68 1011.65 1011.52 1011.49 1011.53 1011.73 1012.14 1012.70 1013.02 1014.05 1013.43 1012.13 1011.71 1013.06 1012.67 1011.86 1011.07 1010.41 1010.42 1010.17 1010.93 1011.27 1011.00 1011.14 1011.32 1011.33 1011.27 1011.18 1011.02 1010.96 1011.28 1011.75 1012.23 1012.12 1012.39 1011.89 1011.07 1010.75 1010.25 1009.18 1008.19 1007.95 1007.70 1007.40
1010.84 1010.95 1011.15 1011.32 1011.24 1011.18 1011.10 1011.41 1011.42 1011.67 1011.88 1012.39 1013.59 1012.71 1012.06 1011.52 1011.84 1011.86 1010.77 1010.23 1010.08 1009.82 1009.73 1009.92 1010.38 1010.68 1010.84 1011.24 1011.74 1011.47 1011.73 1012.27 1011.97 1011.87 1012.18 1012.60 1012.88 1012.78 1011.80 1011.88 1011.23 1010.43 1008.34 1008.18 1007.55 1007.18 1006.89
1010.44 1010.47 1010.63 1010.76 1011.04 1010.81 1010.93 1010.92 1010.93 1011.18 1011.78 1013.12 1013.00 1012.68 1012.37 1011.47 1010.93 1009.89 1010.15 1010.18 1009.95 1009.81 1009.86 1010.47 1010.18 1010.43 1011.78 1012.06 1012.30 1012.36 1012.37 1012.20 1012.10 1011.91 1011.97 1012.15 1012.12 1012.41 1012.41 1012.62 1011.44 1009.09 1008.38 1008.07 1007.54 1006.95 1006.39
1009.96 1010.03 1010.08 1010.23 1010.70 1010.67 1010.36 1010.73 1010.95 1011.21 1011.69 1012.27 1012.83 1012.80 1012.43 1011.77 1010.81 1010.48 1009.98 1009.77 1009.86 1010.05 1010.29 1010.38 1010.49 1011.42 1012.12 1012.70 1013.05 1013.12 1012.83 1012.54 1011.82 1011.67 1011.63 1011.84 1012.01 1012.19 1012.59 1011.89 1010.84 1009.21 1007.81 1008.30 1007.81 1007.08 1006.59
1009.34 1009.51 1009.65 1009.74 1009.93 1010.25 1010.16 1010.29 1010.64 1010.95 1011.59 1012.05 1012.27 1012.70 1012.85 1012.47 1010.99 1010.14 1010.39 1009.94 1009.84 1009.77 1010.25 1010.64 1011.58 1012.56 1012.80 1013.50 1013.97 1013.63 1013.05 1012.55 1011.48 1010.74 1010.68 1010.92 1011.30 1012.15 1012.06 1011.55 1010.40 1007.56 1008.12 1007.80 1007.79 1006.81 1007.28
1008.62 1008.91 1009.16 1009.37 1009.50 1009.60 1009.79 1009.98 1010.25 1010.58 1010.84 1011.43 1012.11 1012.43 1012.97 1012.68 1010.90 1010.87 1010.83 1010.93 1010.01 1009.90 1010.22 1010.91 1012.59 1013.02 1013.22 1014.15 1014.51 1014.32 1013.52 1012.89 1011.84 1011.16 1010.36 1010.06 1010.76 1011.26 1011.23 1011.08 1009.85 1007.79 1008.26 1008.16 1008.22 1008.24 1008.34
1007.97 1008.29 1008.61 1008.90 1009.13 1009.36 1009.60 1009.77 1009.93 1010.22 1010.49 1011.18 1012.17 1012.57 1012.67 1012.51 1011.19 1010.54 1010.10 1010.79 1011.07 1009.66 1009.84 1010.85 1012.53 1013.44 1013.99 1014.56 1014.59 1014.21 1013.50 1012.76 1012.01 1011.12 1010.66 1010.38 1010.41 1010.51 1010.84 1010.49 1009.46 1008.51 1008.21 1008.46 1009.14 1009.27 1009.64
1007.31 1007.74 1008.06 1008.47 1008.78 1009.04 1009.28 1009.53 1009.64 1009.98 1010.52 1011.08 1011.74 1012.22 1012.79 1013.43 1012.93 1011.77 1010.96 1010.94 1010.23 1009.10 1009.53 1010.51 1011.19 1011.92 1012.82 1013.85 1014.05 1013.93 1013.54 1013.05 1012.39 1011.38 1010.98 1010.71 1010.15 1009.76 1009.97 1008.90 1008.65 1008.43 1008.74 1008.64 1009.22 1009.53 1009.71
Wind_Speed
22 20 18 16 15 14 14 12 10 9 8 7 6 5 3 2 2 4 6 8 9 10 10 11 14 16 13 6 9 7 6 10 9 10 10 11 11 12 11 11 9 10 14 12 4 6 8
25 22 18 15 14 14 13 10 10 7 8 7 6 6 3 2 2 4 7 9 9 9 9 10 12 17 8 12 3 1 4 7 9 8 12 7 9 10 10 13 13 14 10 13 11 11 11
14 11 10 17 15 14 14 10 6 7 9 8 6 5 3 2 3 5 6 8 9 8 8 9 11 9 9 17 5 6 6 7 8 7 10 4 8 8 7 11 9 9 14 16 18 16 17
9 6 12 9 9 12 13 10 8 8 8 7 7 5 2 2 5 7 7 9 10 8 8 9 11 9 8 7 5 10 13 11 9 7 9 11 7 11 13 11 9 13 15 14 15 19 8
4 7 9 10 6 6 7 7 8 7 6 6 5 5 1 3 4 8 10 11 12 10 8 9 9 7 9 3 7 2 6 5 2 7 10 7 6 11 8 10 11 14 12 14 11 13 9
7 7 11 10 10 9 7 6 7 6 5 4 3 2 1 3 7 8 12 11 9 9 10 10 10 8 7 6 3 3 5 5 5 6 7 8 7 8 9 11 11 13 11 11 10 13 10
12 10 13 15 15 14 13 11 8 6 4 4 4 2 2 4 7 10 10 7 6 7 10 10 2 10 1 4 3 9 9 8 8 8 10 14 10 12 17 18 16 14 13 15 15 17 14
13 14 13 12 14 15 15 13 10 8 7 7 7 4 2 4 8 10 7 7 7 5 11 16 21 21 18 6 5 13 12 9 13 13 15 13 14 16 16 18 7 12 14 16 17 16 15
14 14 15 15 14 16 16 15 14 13 12 11 9 7 3 4 7 7 10 11 7 8 9 15 22 19 18 14 12 15 16 13 15 16 18 19 15 6 5 13 11 14 16 16 18 15 15
13 13 14 15 13 16 17 16 15 14 11 10 10 7 5 2 4 7 9 2 4 4 8 8 9 5 9 7 10 21 15 16 14 20 19 17 18 21 14 14 15 18 16 15 10 9 12
10 12 15 15 13 13 15 16 15 14 11 11 9 8 7 6 10 7 7 4 2 3 8 9 10 8 11 15 5 7 12 8 18 18 12 12 9 10 15 18 16 18 8 7 11 13 14
14 13 14 15 15 14 15 15 14 12 12 12 11 7 6 5 5 5 5 5 4 4 11 8 9 10 13 16 11 7 7 9 9 19 18 19 19 8 11 13 9 8 4 11 13 11 13
6 11 16 17 15 14 17 16 14 13 13 13 12 10 6 9 2 5 2 4 4 9 5 7 8 15 16 13 15 11 13 13 11 10 16 20 20 14 12 10 9 8 9 6 7 10 12
8 8 10 13 15 16 18 18 16 13 14 14 12 10 6 6 4 2 5 5 11 9 20 6 1 11 15 15 15 14 13 13 19 15 11 13 15 21 15 16 14 17 13 7 9 11 14
13 11 10 11 13 13 16 20 18 18 16 14 11 4 6 5 3 3 7 10 11 16 7 9 18 11 13 16 10 16 18 16 17 19 14 10 12 14 18 10 13 12 12 13 13 13 12
14 15 13 11 13 16 17 17 20 20 19 16 5 3 7 9 7 4 6 19 17 16 8 9 13 9 10 11 9 8 12 7 11 2 9 13 12 7 11 8 11 8 10 8 4 4 13
15 17 16 12 12 16 18 18 20 21 22 22 4 3 6 11 7 6 12 14 23 19 14 3 11 15 11 10 11 12 14 8 5 7 6 11 12 12 11 7 14 12 12 12 9 10 11
15 12 15 16 16 15 19 21 22 22 23 19 3 6 10 12 6 5 14 12 11 17 17 6 7 9 12 10 14 12 15 7 9 6 7 6 6 9 14 13 14 3 11 11 5 6 2
13 13 14 17 17 14 18 23 24 24 29 7 4 1 9 11 9 11 15 16 19 19 20 13 12 11 10 12 8 10 12 9 4 4 5 9 3 7 13 14 16 16 12 17 15 12 15
15 13 13 13 17 16 15 24 23 25 32 10 5 5 4 6 10 17 19 19 18 22 15 12 13 10 12 13 14 7 11 6 5 3 5 3 8 13 11 15 17 15 15 16 15 10 13
12 12 12 11 11 19 12 22 24 23 24 8 5 5 8 10 13 18 17 15 22 20 22 12 13 17 12 10 13 15 18 17 10 8 5 5 13 15 18 22 21 22 21 22 21 16 17
14 12 11 12 12 11 13 15 15 17 30 7 5 5 9 9 17 21 18 20 23 20 17 20 17 15 15 15 15 15 18 18 17 16 16 13 12 12 19 20 19 22 24 24 23 22 23
14 14 11 12 14 15 13 17 22 19 10 4 3 5 4 10 16 17 21 24 23 20 16 21 18 13 15 12 10 13 8 7 10 10 6 13 4 11 16 17 17 12 22 22 21 20 19
14 13 15 11 15 16 13 13 13 18 11 3 3 2 4 6 11 20 21 23 22 18 16 14 12 9 14 5 5 8 12 12 13 15 13 14 13 9 13 13 17 16 20 20 21 21 21
15 13 13 14 13 20 14 13 10 15 17 6 3 2 1 2 14 13 16 17 18 16 8 11 9 5 6 3 1 5 8 12 17 19 19 16 14 13 14 15 17 26 19 10 14 20 20
16 15 14 13 14 18 13 12 13 10 17 4 4 4 1 1 5 13 16 17 11 11 12 14 11 5 4 2 2 10 12 13 12 21 25 21 18 13 13 16 19 24 16 16 8 17 9
18 17 15 14 12 12 11 10 9 9 12 7 3 4 3 3 7 4 8 6 11 12 8 7 7 6 5 4 5 8 13 15 18 17 17 9 13 15 16 14 15 22 20 18 15 8 6
19 17 16 14 13 12 12 11 9 9 8 7 4 5 4 2 6 8 15 8 7 14 9 9 8 3 3 5 5 7 8 11 15 17 16 15 11 11 9 11 16 4 11 8 3 2 4
20 18 16 15 14 13 12 11 9 8 14 5 2 3 4 1 3 6 6 10 16 9 9 13 7 12 5 5 5 3 6 5 10 12 11 14 15 12 12 9 2 6 9 7 7 5 5
Wind_Direction
220 218 215 211 211 193 171 164 161 164 160 151 148 130 111 70 11 336 326 324 326 330 331 327 332 327 321 279 293 147 207 231 262 261 278 294 295 280 266 289 295 263 269 278 225 267 260
219 214 213 197 174 163 159 153 147 160 145 143 138 121 104 57 350 334 329 323 322 321 315 322 323 317 271 277 34 1 315 285 254 277 265 257 282 344 313 283 289 311 310 295 270 250 242
18 69 117 133 132 132 125 122 135 150 144 144 138 122 98 33 338 330 332 319 318 319 309 307 310 301 270 251 307 291 264 265 308 301 301 288 309 287 324 286 315 290 281 270 253 241 249
21 70 88 76 96 116 125 135 150 164 149 157 142 120 73 10 341 324 317 304 303 302 311 282 288 292 261 327 346 289 261 255 236 257 272 298 294 281 271 270 276 259 261 263 264 210 142
107 72 97 99 95 95 115 142 153 158 165 166 150 129 122 326 326 313 306 299 285 280 281 273 267 228 268 147 229 211 260 248 163 229 243 274 272 257 247 238 260 216 250 257 241 167 162
145 164 152 164 165 170 166 176 174 174 189 182 170 152 299 328 316 315 298 279 289 283 234 241 253 281 246 233 123 262 227 223 182 173 205 232 227 240 221 233 246 264 261 259 274 172 202
177 199 199 185 181 183 181 186 193 183 206 203 196 227 277 320 321 312 315 255 226 194 224 232 208 265 236 133 245 217 194 205 229 199 218 196 215 231 241 236 259 284 276 282 286 301 283
206 197 219 226 191 194 193 192 200 206 218 201 187 213 261 326 312 310 298 260 17 354 289 250 253 256 261 283 272 230 180 214 207 221 222 244 227 250 271 278 304 287 276 274 280 277 273
218 214 217 223 217 205 199 197 203 207 210 209 201 199 185 284 316 292 245 281 9 321 263 262 236 235 233 219 230 237 201 223 243 229 240 252 249 134 265 276 239 251 259 271 276 287 295
225 214 217 225 223 222 211 205 210 207 208 200 185 180 188 285 296 244 244 334 324 316 271 242 198 234 180 213 247 230 245 210 234 237 253 260 260 263 245 242 264 264 274 289 302 287 269
246 227 222 221 218 216 208 212 208 201 194 190 200 185 198 187 313 255 35 343 343 234 283 96 121 113 159 190 107 188 210 235 234 231 227 230 230 245 257 261 237 262 291 303 280 276 285
234 236 246 234 217 208 205 209 209 191 184 187 192 190 192 222 236 294 356 324 257 231 241 188 128 186 186 213 240 118 187 233 250 242 251 242 274 274 241 257 241 282 281 267 252 249 253
290 241 235 237 231 220 209 204 207 193 188 191 187 176 200 308 319 89 237 227 206 235 262 172 176 179 204 188 220 173 185 197 197 194 227 240 233 230 239 240 198 226 246 269 245 231 242
299 281 256 245 232 220 221 204 201 205 196 194 179 168 219 247 272 167 242 216 237 229 241 349 346 176 213 213 209 194 197 211 225 231 279 212 217 212 192 227 223 209 225 229 276 280 297
280 277 275 257 245 234 222 212 201 200 193 186 144 201 240 213 237 255 225 211 219 237 281 328 230 254 223 240 216 205 221 219 217 218 237 258 255 178 206 184 228 248 251 270 283 284 285
278 272 266 274 254 237 230 217 208 193 183 160 171 163 240 184 181 197 219 240 227 260 299 298 275 223 240 219 214 207 242 260 264 295 309 277 280 187 182 231 248 266 296 298 294 262 270
281 268 254 258 274 245 229 221 211 194 179 165 160 193 207 153 170 199 220 227 222 258 296 265 284 288 281 290 291 289 263 111 354 268 301 298 280 258 233 185 254 242 230 245 279 280 274
280 292 250 250 256 271 233 218 211 192 172 165 181 206 168 155 180 205 234 237 251 263 278 228 299 296 301 304 292 300 298 71 16 21 308 9 322 292 276 270 278 314 290 277 234 251 219
272 282 280 259 254 269 251 221 206 195 176 164 181 172 180 189 200 212 237 245 245 246 236 226 232 249 273 267 283 259 265 106 229 276 358 346 241 281 276 270 267 265 258 259 262 246 263
263 266 264 283 244 250 296 224 205 198 185 176 148 173 206 197 234 215 220 237 242 239 242 240 250 244 251 240 253 256 260 176 166 247 75 6 271 258 274 288 309 302 288 274 259 266 273
259 254 261 262 283 248 245 228 209 189 196 137 204 190 181 177 214 221 230 227 227 230 229 225 242 246 233 227 225 236 243 263 191 179 211 224 258 265 271 271 274 278 284 277 273 271 247
254 245 264 265 257 272 244 271 219 219 188 191 168 199 172 194 203 214 220 234 229 221 221 209 224 241 231 242 249 244 242 233 228 215 212 217 244 260 272 274 283 281 275 273 275 277 280
250 243 240 276 271 248 251 251 211 219 219 80 171 256 226 208 198 199 215 223 238 230 218 232 212 238 229 249 343 317 339 257 271 284 269 256 234 275 265 275 282 289 259 268 274 275 279
257 248 236 232 271 268 231 253 217 217 180 122 203 240 172 211 194 204 207 217 227 236 247 222 273 218 251 344 326 293 277 269 258 261 270 265 265 257 258 274 266 258 269 279 285 286 281
248 250 251 227 234 264 222 228 251 215 150 136 165 115 86 221 197 209 216 214 220 227 219 261 229 59 43 112 237 266 253 267 263 269 256 251 257 258 255 257 272 282 269 293 288 284 282
243 243 248 252 229 242 239 217 220 211 168 154 172 159 140 33 220 203 213 213 215 212 208 209 136 124 119 77 251 240 244 249 244 235 228 238 235 238 244 250 257 256 281 273 333 278 318
238 240 238 241 247 243 239 231 218 213 196 171 100 199 143 206 240 226 227 225 241 204 201 181 133 189 180 192 220 243 253 253 254 268 277 236 233 237 241 250 259 270 284 282 272 284 20
237 234 237 232 238 240 230 229 214 207 171 157 127 170 139 289 298 273 256 205 289 228 177 157 143 234 175 205 237 235 255 254 259 260 260 267 245 221 228 240 258 314 305 288 358 339 300
228 229 231 229 233 233 230 218 208 193 167 114 83 130 74 163 296 311 307 290 254 260 176 163 172 164 158 196 217 254 255 287 287 278 288 263 260 268 251 259 236 174 219 233 288 286 291